Temperature
25 24 24 23 22 20 22 23 23 23 22 23 23 22 21 20 20 19 19 20 20 19 19 19 19 19 19 19 19 19 19 19 19 19 18 18 18 18 18 18 18 18 18 18 18 18 18 18 18
25 25 24 23 21 20 22 23 23 23 23 23 22 21 20 19 19 19 19 19 19 19 19 19 19 19 19 19 19 19 19 19 18 18 18 18 18 18 18 18 18 18 18 18 18 18 18 18 18
26 25 24 21 21 21 23 23 23 23 23 23 22 21 20 19 20 20 20 20 19 19 19 19 19 19 19 19 19 19 19 19 18 18 18 18 18 18 18 18 18 18 18 18 18 17 17 17 17
26 25 24 21 23 23 23 23 23 23 24 23 22 21 20 20 21 21 20 20 20 19 19 19 19 19 19 19 19 19 19 19 18 18 18 18 18 18 18 18 18 18 18 18 17 17 17 17 17
26 26 22 21 23 24 24 24 24 23 23 22 22 20 19 20 21 21 20 20 20 20 19 19 19 19 19 19 19 19 19 18 18 18 18 18 18 18 18 18 18 18 18 18 18 17 17 17 17
27 23 21 22 23 24 24 24 24 23 23 22 21 20 19 20 21 21 20 20 20 20 19 19 19 19 19 19 19 19 19 18 18 18 18 18 18 18 18 18 18 18 17 17 17 17 17 17 17
26 22 22 23 23 24 24 24 24 23 23 22 22 19 19 19 20 21 20 20 20 20 19 19 19 19 19 19 19 18 18 18 18 18 18 18 18 18 18 18 18 18 17 17 17 17 17 17 17
27 21 23 23 24 24 25 24 24 23 23 23 22 20 19 20 20 20 20 20 20 20 19 19 19 19 19 19 18 18 18 18 18 18 18 18 18 18 18 18 18 18 17 17 17 17 17 17 17
27 22 23 24 24 24 25 24 24 24 23 23 22 22 22 20 20 20 20 19 19 19 19 19 19 19 19 19 18 18 18 18 18 18 18 18 18 18 18 18 17 17 17 17 17 17 17 17 17
26 22 24 24 25 25 25 25 24 24 23 22 22 22 21 20 20 20 20 20 20 19 19 19 19 19 19 19 19 18 18 18 18 18 18 18 18 18 18 18 18 17 17 17 17 17 17 17 17
26 24 25 26 26 26 25 25 25 24 22 22 22 21 21 20 20 20 20 20 20 20 20 19 19 19 19 19 19 19 18 18 18 18 18 18 18 18 18 18 18 17 17 17 17 17 17 17 17
26 26 26 27 27 26 25 25 24 24 24 25 24 23 22 21 21 21 21 20 20 20 20 19 19 19 19 19 19 19 18 18 18 18 18 18 18 18 18 18 18 17 17 17 17 17 17 17 17
26 26 27 27 27 26 26 25 24 24 25 25 24 23 22 21 21 21 21 21 20 20 20 20 19 19 19 19 19 19 18 18 18 18 18 18 18 18 18 18 18 17 17 17 17 17 17 17 17
26 26 26 26 26 26 25 24 24 24 24 24 23 22 22 22 21 21 21 21 20 20 20 20 19 19 19 19 19 18 18 18 18 18 18 18 18 18 18 18 18 18 17 17 17 17 17 17 17
26 25 25 26 26 26 25 24 24 24 24 23 22 22 22 21 21 21 21 21 21 21 20 20 19 19 19 19 18 18 18 18 18 18 18 18 18 18 18 18 18 18 17 17 17 17 17 17 17
25 24 25 25 25 25 25 24 24 24 23 22 22 21 22 21 21 21 21 21 21 20 20 20 19 19 19 19 18 18 18 18 18 18 18 18 18 18 18 18 18 18 17 17 17 17 17 17 17
24 24 25 25 25 25 25 24 23 23 23 22 21 21 22 22 21 21 21 21 21 21 20 20 19 19 19 19 18 18 18 18 18 18 18 18 18 18 18 18 18 18 18 17 17 17 17 17 17
25 25 25 25 25 24 24 24 23 23 22 22 22 22 22 22 22 22 22 21 21 21 20 20 19 19 19 19 18 18 18 18 18 18 18 18 18 18 18 18 18 18 18 17 17 17 17 17 17
25 25 24 24 25 24 24 23 23 22 22 22 21 22 22 22 23 22 22 21 21 21 20 20 19 19 19 19 18 18 18 18 18 18 18 18 18 18 18 18 18 18 18 18 17 17 17 17 17
25 25 25 25 25 25 24 23 23 22 22 22 22 22 22 22 22 22 22 22 21 21 21 20 20 19 19 19 19 18 18 18 18 18 18 18 18 18 18 18 18 18 18 17 17 17 17 17 17
25 25 26 26 25 23 24 23 23 23 23 23 23 23 23 23 23 23 22 22 22 21 21 20 20 20 19 19 19 18 18 18 18 18 18 18 18 18 18 18 18 18 18 18 17 17 17 17 17
25 26 26 25 24 22 24 23 23 22 22 22 23 23 23 23 23 23 23 22 22 22 21 21 20 20 19 19 19 18 18 18 18 18 18 18 18 18 18 18 17 17 17 17 17 17 17 17 17
26 25 24 24 23 22 22 22 22 21 22 22 22 23 23 23 23 23 23 23 22 22 21 21 20 20 20 19 19 18 18 18 18 18 18 18 18 18 18 17 17 17 17 17 17 17 17 17 17
25 23 22 19 20 22 23 23 22 21 22 22 23 23 24 24 24 24 23 23 22 22 21 21 21 20 20 19 19 19 18 18 18 18 18 18 18 18 17 17 17 17 17 17 17 17 17 17 17
24 22 21 22 20 21 21 22 21 22 22 22 23 24 24 24 24 23 23 23 22 22 22 21 21 20 20 19 19 19 19 18 18 18 18 18 18 18 18 17 17 17 17 17 17 17 17 17 17
24 22 21 22 22 21 21 22 22 23 23 24 24 24 24 24 24 24 24 23 23 22 22 22 21 21 20 20 19 19 19 18 18 18 18 18 18 18 18 17 17 17 17 17 17 17 17 17 17
23 21 20 19 20 21 21 21 22 23 23 23 23 24 24 24 24 24 24 24 23 23 22 22 21 21 20 20 19 19 19 18 18 18 18 18 18 18 17 17 17 17 17 17 17 17 17 17 17
23 19 18 19 20 22 22 22 22 24 24 22 22 23 24 25 25 24 24 24 23 23 22 22 21 21 20 20 19 19 19 18 18 18 18 18 18 17 17 17 17 17 17 17 17 17 17 17 17
22 21 18 17 18 20 22 22 22 22 23 22 22 23 24 25 25 25 25 24 24 23 22 22 21 21 20 20 19 19 19 19 18 18 18 18 18 17 17 17 17 17 17 17 17 17 17 17 17
23 21 19 21 20 18 19 21 23 21 21 22 23 24 25 25 25 25 25 24 23 23 22 22 21 21 20 20 20 19 19 19 18 18 18 18 18 17 17 17 17 17 17 17 17 17 17 16 16
Wind_Speed
5 6 3 2 5 6 4 4 2 3 3 3 6 7 7 5 2 4 3 7 9 9 11 15 16 15 15 15 15 15 15 15 15 15 15 15 14 14 14 13 13 13 13 13 14 14 14 15 15
5 4 2 4 6 4 4 3 3 3 4 5 7 6 7 5 4 7 5 7 10 10 12 14 16 15 15 14 14 14 14 14 14 14 14 14 13 13 13 13 13 12 12 12 13 14 14 14 15
5 3 4 5 5 3 1 0 3 5 4 3 5 6 5 4 5 5 6 11 10 9 11 14 16 15 15 14 14 14 13 13 13 12 12 12 13 13 13 12 12 12 12 12 13 14 14 14 14
3 3 5 6 4 1 2 3 4 6 4 6 5 6 5 4 5 7 12 12 11 8 11 14 16 15 14 14 13 13 13 12 12 12 11 12 12 12 12 12 12 11 11 12 13 13 13 13 13
3 5 7 5 3 2 1 3 3 4 3 5 6 6 4 4 10 14 12 12 10 7 9 13 15 14 14 13 13 12 12 12 11 11 10 11 11 11 11 11 11 11 11 12 12 12 11 11 11
4 5 5 2 3 2 1 2 3 6 5 5 6 5 3 5 10 12 11 10 8 8 8 12 14 14 13 13 12 12 12 11 10 10 10 10 10 10 10 10 10 10 11 11 11 11 10 10 10
4 5 4 2 1 0 2 3 3 5 5 4 5 6 3 4 8 10 10 9 8 7 7 8 11 12 12 12 11 11 11 10 10 9 9 10 10 9 10 9 10 10 10 10 10 10 10 9 10
5 5 3 1 2 2 4 3 3 5 4 5 5 8 7 7 10 11 9 8 7 6 5 5 7 8 9 10 11 11 10 10 9 9 9 9 9 9 8 8 8 9 9 9 10 9 9 9 9
4 5 1 4 4 3 4 4 3 3 6 4 3 5 8 16 15 12 10 7 7 7 4 4 5 7 8 8 9 9 10 9 8 8 8 7 7 6 6 6 7 8 8 8 8 8 8 8 8
5 3 4 4 4 5 6 5 5 5 5 3 6 8 15 16 15 14 13 12 10 9 7 5 5 6 7 7 7 6 6 7 6 6 7 7 6 5 5 5 6 6 7 7 7 7 7 7 6
3 3 3 1 3 5 6 5 4 8 5 7 10 16 18 16 13 13 12 11 10 9 8 6 5 6 6 4 5 5 5 5 5 6 6 6 4 3 3 3 3 4 5 5 5 6 6 5 5
2 1 1 1 3 4 6 6 4 5 6 7 14 19 18 17 15 14 13 10 8 8 8 7 6 5 6 5 5 5 4 4 4 4 5 5 3 2 2 2 2 3 3 4 4 4 4 4 4
2 1 1 2 3 4 6 5 4 2 4 12 15 16 17 15 12 9 8 8 8 9 9 8 7 6 5 4 4 5 4 5 5 5 5 6 4 3 3 2 2 2 3 3 3 3 3 3 3
1 2 2 1 3 3 6 3 3 1 9 13 14 14 14 13 11 9 9 10 9 10 9 8 8 7 6 4 4 4 6 6 5 5 6 7 6 5 4 3 2 2 3 3 3 2 2 2 2
2 4 6 3 2 2 6 2 2 4 11 12 12 12 11 10 10 11 12 11 11 9 8 8 8 7 7 6 6 5 6 6 5 6 7 8 8 7 5 3 3 3 4 3 2 2 2 2 2
5 5 3 4 1 1 5 4 3 7 11 10 10 10 9 8 9 9 9 9 9 9 9 9 9 9 8 6 6 5 6 6 6 7 7 8 9 9 6 4 4 5 4 3 2 2 2 1 1
5 2 2 4 1 2 3 4 3 7 10 10 9 8 8 7 7 8 9 9 10 10 10 9 8 9 8 7 5 5 5 5 6 7 7 8 9 9 8 5 5 5 4 3 3 2 2 2 2
2 2 2 4 3 2 2 4 3 7 9 9 8 7 8 9 10 8 8 9 9 9 9 9 9 8 7 5 3 3 3 3 5 6 7 8 8 9 8 6 6 6 3 3 2 2 2 2 2
2 1 3 4 2 3 4 4 3 7 8 8 8 8 9 9 7 6 7 8 8 8 9 9 9 8 7 5 4 3 3 3 2 4 7 9 9 9 8 5 5 5 4 5 5 3 3 2 2
2 0 2 3 2 2 1 3 2 7 10 10 10 11 11 8 6 7 7 8 9 10 10 9 10 9 8 6 5 3 2 2 2 3 4 7 8 9 8 7 5 5 4 5 5 4 3 2 3
1 4 3 1 3 5 4 5 2 2 4 5 7 8 9 10 10 9 9 9 9 10 11 10 10 9 8 6 4 3 2 1 1 2 2 4 7 9 9 8 7 6 6 6 6 6 6 4 3
3 4 4 3 4 2 3 2 6 3 4 7 8 9 10 10 9 9 9 9 10 10 9 9 9 8 8 7 6 6 5 4 4 3 3 4 6 7 8 8 8 6 5 6 7 6 5 5 4
4 3 4 3 4 3 3 1 8 2 5 9 11 11 11 10 11 11 11 11 9 8 8 8 8 7 7 8 8 7 5 4 2 2 3 3 3 5 7 7 7 6 6 6 6 6 6 5 5
6 7 7 6 5 2 1 2 7 5 8 7 8 11 11 10 10 10 8 7 7 7 8 8 8 8 7 8 7 7 7 5 4 4 4 3 3 3 5 6 6 6 6 6 7 7 7 7 6
6 7 5 5 5 5 3 2 9 8 8 8 9 10 11 10 10 9 9 9 8 9 9 9 9 8 8 8 7 7 7 7 7 5 5 4 3 3 4 4 5 5 6 6 6 6 7 7 7
5 10 8 5 4 5 4 4 8 7 7 5 6 7 8 9 9 9 9 9 9 10 10 9 9 8 8 8 7 6 6 5 4 5 4 4 4 4 3 4 5 5 6 6 5 5 6 6 7
7 4 8 8 3 1 6 7 9 3 3 1 4 7 9 9 9 9 8 8 9 9 10 10 9 7 7 7 7 6 5 5 5 4 4 3 4 4 4 4 5 5 5 5 4 4 5 5 6
6 10 7 7 6 2 6 5 5 6 4 3 5 8 8 8 8 8 7 7 7 8 8 8 8 8 7 7 6 6 5 5 5 4 4 4 4 3 3 4 5 4 4 4 5 4 4 4 5
6 6 6 6 6 7 3 7 7 9 8 8 9 9 9 10 9 8 7 6 6 6 7 7 7 7 6 6 6 5 5 5 4 4 4 4 4 4 4 4 4 4 4 4 4 4 4 4 5
6 9 9 7 5 5 5 8 7 8 8 8 8 7 7 7 7 6 6 6 6 7 7 8 8 7 7 7 6 5 5 4 4 4 4 4 4 3 4 4 4 4 4 4 5 5 5 5 5
Wind_Direction
151 139 139 89 56 49 27 351 24 71 64 62 87 92 98 84 111 136 128 133 131 134 141 138 133 129 125 120 116 114 113 114 115 116 117 119 119 119 118 118 117 116 115 115 115 115 118 118 119
144 148 102 61 73 57 354 343 41 64 124 117 84 78 76 71 75 108 128 136 131 133 135 140 137 132 128 125 121 118 117 116 116 116 118 120 120 119 118 118 116 115 116 117 116 118 119 120 122
158 155 84 67 79 125 167 328 119 104 102 87 82 69 76 103 121 133 145 135 124 128 134 141 138 135 132 129 125 123 122 120 118 118 120 120 119 119 120 120 117 115 116 117 117 120 119 120 121
131 65 55 64 56 293 180 170 141 120 72 59 91 73 67 95 134 135 137 134 128 126 138 144 140 138 136 134 130 128 125 123 123 123 123 122 122 121 121 120 117 116 117 117 118 121 120 120 120
72 74 55 43 8 356 124 155 130 112 87 72 88 88 60 47 107 125 133 133 134 131 139 146 143 143 141 139 135 132 129 128 126 125 125 124 123 122 120 119 118 117 117 117 119 120 121 122 122
59 64 72 44 355 27 89 117 99 95 100 96 91 96 68 104 120 132 132 129 134 134 136 147 148 148 146 143 140 137 134 132 131 130 128 124 123 124 122 121 120 119 118 117 119 119 120 119 118
94 84 113 148 156 146 168 121 115 120 113 118 116 101 98 125 129 128 124 124 128 130 130 140 148 149 148 146 144 142 138 136 135 132 129 127 125 125 124 123 123 121 120 120 120 121 120 121 122
116 94 80 146 175 210 160 124 126 125 119 118 116 135 163 162 134 120 116 118 125 124 123 126 131 137 142 146 148 145 141 140 140 137 134 133 130 127 125 123 125 126 126 125 123 119 121 123 123
88 74 138 208 186 200 155 135 138 105 113 118 119 145 151 139 134 129 128 132 144 148 138 134 132 137 141 147 152 147 145 144 140 137 136 124 112 114 120 126 132 132 133 129 125 120 117 118 122
81 114 222 215 187 167 159 153 150 119 119 110 89 100 127 140 147 152 158 164 168 171 170 162 152 151 150 154 145 136 133 134 128 123 118 116 115 117 122 133 139 141 137 132 124 119 110 106 110
107 174 223 210 163 141 144 149 140 133 169 183 158 145 146 152 160 166 171 173 175 174 176 173 166 165 159 144 141 136 131 132 133 131 128 126 117 109 104 106 109 116 116 111 111 105 102 108 118
84 301 208 200 132 133 150 145 132 173 208 163 153 151 155 164 173 177 177 177 171 172 182 176 172 170 169 158 154 153 151 153 155 157 153 143 134 138 134 132 127 105 103 103 103 107 107 112 129
49 335 0 116 114 127 119 123 139 195 117 122 137 151 164 173 178 177 171 175 175 181 185 183 178 176 172 166 171 170 173 176 181 178 179 175 171 177 168 163 157 140 126 124 120 118 113 117 131
331 16 5 66 106 113 117 103 107 151 127 133 147 162 172 177 176 172 172 184 188 189 188 184 183 179 176 178 183 183 185 186 186 192 196 195 191 186 179 179 179 181 166 151 146 137 123 128 140
42 36 20 35 83 104 109 75 213 158 139 146 161 169 174 180 180 188 190 190 191 189 184 185 187 179 183 185 193 195 194 190 192 204 207 203 199 194 187 184 191 199 183 162 140 124 114 126 137
44 50 15 302 69 119 129 224 229 153 150 159 168 172 177 187 193 197 194 191 186 180 181 187 194 184 188 187 191 194 198 195 202 206 208 206 203 198 190 190 202 202 182 168 153 139 125 133 149
35 26 307 300 263 124 148 228 204 161 162 170 175 178 179 188 204 203 194 188 183 184 183 183 191 187 190 189 185 188 195 199 207 208 205 205 203 200 194 198 205 194 179 178 185 157 150 166 185
278 306 304 276 267 139 189 240 192 173 174 181 181 183 186 196 207 200 190 184 179 181 181 183 191 190 184 174 164 175 189 202 204 206 205 204 205 203 199 203 202 183 173 182 179 160 153 165 178
176 206 285 270 248 157 211 247 223 180 182 186 190 193 200 208 204 188 183 178 174 177 181 186 188 187 175 170 176 183 199 202 204 212 206 204 205 203 200 203 193 185 190 197 181 161 165 176 147
157 290 299 321 26 115 192 293 257 192 203 200 197 199 203 199 192 191 188 184 184 185 187 188 191 187 184 185 177 174 173 192 201 214 211 209 207 206 206 199 194 191 192 194 185 167 162 182 170
213 194 215 221 34 43 72 344 307 236 216 211 206 202 204 202 200 196 196 197 193 193 193 195 193 189 186 175 149 127 107 76 154 208 216 220 213 211 208 202 201 197 193 200 198 187 180 194 198
243 230 184 144 94 351 61 292 285 257 249 226 214 201 204 204 198 198 200 200 202 201 194 192 187 184 180 171 174 176 188 203 214 207 216 227 221 220 214 208 205 206 202 204 205 199 192 183 198
201 70 93 91 113 55 32 134 286 298 251 241 222 210 207 201 196 202 205 205 201 193 187 185 179 183 181 182 187 190 204 209 205 202 225 236 230 226 218 212 207 207 209 212 210 199 199 195 197
126 72 55 49 67 44 281 174 277 239 227 240 222 211 204 197 196 203 203 192 187 182 179 177 178 188 187 189 190 194 204 203 201 210 221 231 235 232 222 215 210 212 212 216 214 209 206 207 207
95 89 34 8 15 258 290 223 253 255 242 228 220 209 198 190 191 194 192 189 186 184 184 181 184 193 190 191 196 201 205 202 206 211 217 221 228 233 232 221 213 214 215 215 210 211 216 209 210
158 136 154 188 214 277 323 248 259 273 271 232 203 186 178 183 191 194 194 191 191 190 186 184 188 194 189 192 199 198 196 197 207 212 213 219 229 237 237 229 224 223 219 218 208 211 216 212 216
132 149 153 129 150 315 297 297 305 329 2 111 152 159 178 188 192 194 188 186 189 189 188 186 185 186 187 191 191 191 192 198 209 214 215 224 232 239 234 232 231 226 218 213 204 215 222 215 218
138 140 107 120 142 226 298 293 262 281 272 237 195 189 192 189 190 191 187 185 186 186 182 177 178 183 184 186 192 196 196 202 208 211 220 225 234 239 240 239 232 226 221 212 205 211 218 221 228
114 106 107 112 143 152 224 270 230 228 231 224 219 203 195 192 192 191 186 178 171 169 170 175 178 177 180 186 191 191 194 198 202 216 229 230 234 236 238 235 228 225 223 214 206 210 208 217 228
168 164 147 152 192 169 171 259 261 238 237 222 223 211 199 193 186 178 171 160 163 171 175 180 182 183 187 185 184 190 192 194 204 221 231 230 233 236 234 231 229 231 229 216 211 216 214 217 227
Height
1498 1497 1498 1500 1504 1517 1522 1515 1509 1509 1511 1512 1512 1513 1516 1520 1524 1530 1528 1529 1532 1534 1536 1538 1540 1542 1543 1544 1545 1546 1547 1548 1549 1550 1551 1552 1553 1554 1555 1556 1557 1558 1559 1560 1560 1561 1562 1563 1564
1499 1499 1501 1501 1515 1532 1527 1515 1512 1511 1512 1512 1514 1516 1518 1521 1522 1525 1527 1531 1534 1536 1538 1540 1542 1544 1545 1546 1547 1548 1549 1550 1551 1552 1553 1554 1555 1556 1557 1558 1559 1560 1561 1561 1562 1563 1564 1565 1566
1500 1500 1502 1506 1521 1529 1524 1514 1513 1512 1513 1513 1515 1518 1520 1523 1524 1527 1529 1532 1535 1538 1540 1542 1544 1545 1547 1548 1549 1550 1551 1552 1553 1554 1555 1556 1557 1558 1559 1560 1561 1561 1562 1563 1564 1565 1566 1567 1568
1501 1503 1504 1514 1522 1519 1516 1513 1512 1513 1514 1515 1517 1520 1523 1526 1527 1529 1531 1534 1537 1540 1542 1544 1546 1547 1549 1550 1551 1552 1553 1554 1555 1556 1557 1558 1559 1559 1560 1561 1562 1563 1564 1565 1566 1567 1568 1569 1570
1502 1503 1513 1524 1522 1516 1513 1513 1514 1515 1516 1517 1518 1522 1526 1529 1529 1531 1533 1536 1539 1541 1544 1546 1547 1549 1550 1552 1553 1553 1554 1555 1556 1557 1558 1559 1560 1561 1562 1563 1564 1565 1566 1567 1568 1569 1570 1571 1572
1504 1506 1524 1531 1523 1516 1514 1515 1516 1517 1518 1519 1521 1524 1528 1530 1531 1533 1536 1538 1541 1543 1545 1547 1549 1551 1552 1553 1554 1555 1556 1557 1558 1559 1560 1561 1562 1563 1564 1565 1566 1567 1567 1568 1570 1571 1572 1573 1574
1506 1513 1524 1524 1523 1519 1516 1516 1517 1518 1519 1521 1522 1525 1529 1531 1534 1535 1538 1540 1542 1545 1547 1548 1550 1552 1553 1555 1556 1557 1558 1559 1559 1560 1561 1563 1563 1565 1566 1567 1568 1568 1569 1570 1571 1573 1574 1575 1576
1506 1512 1522 1524 1522 1519 1515 1516 1517 1518 1520 1522 1523 1525 1528 1531 1534 1537 1539 1541 1544 1546 1548 1550 1552 1553 1554 1556 1557 1558 1559 1560 1561 1562 1563 1564 1565 1566 1567 1568 1569 1570 1571 1572 1573 1574 1575 1576 1578
1507 1518 1527 1522 1519 1516 1514 1516 1518 1519 1520 1522 1523 1525 1527 1531 1534 1537 1540 1542 1544 1546 1549 1551 1552 1554 1555 1557 1558 1559 1560 1561 1562 1563 1564 1565 1567 1568 1569 1570 1571 1572 1573 1574 1575 1576 1577 1578 1579
1508 1522 1519 1513 1512 1512 1513 1515 1517 1519 1521 1523 1524 1526 1528 1531 1534 1537 1539 1541 1544 1547 1549 1551 1553 1555 1556 1558 1559 1560 1561 1562 1563 1565 1566 1567 1568 1569 1570 1571 1572 1573 1574 1575 1576 1578 1579 1580 1581
1509 1514 1511 1510 1510 1511 1513 1516 1517 1519 1522 1521 1522 1525 1528 1531 1535 1537 1540 1542 1545 1547 1549 1551 1553 1555 1557 1559 1560 1561 1562 1563 1565 1566 1567 1568 1569 1570 1571 1573 1573 1575 1576 1577 1578 1579 1580 1581 1582
1510 1510 1510 1510 1510 1512 1514 1516 1518 1519 1519 1519 1522 1524 1527 1531 1534 1537 1540 1543 1546 1548 1550 1552 1554 1556 1558 1560 1561 1562 1563 1564 1566 1567 1568 1569 1570 1572 1573 1574 1575 1576 1577 1578 1579 1580 1581 1582 1583
1510 1511 1510 1510 1510 1512 1514 1516 1518 1519 1519 1521 1524 1526 1529 1531 1535 1538 1541 1544 1546 1548 1550 1552 1555 1556 1558 1560 1561 1563 1564 1565 1566 1568 1569 1570 1572 1573 1574 1575 1576 1577 1578 1579 1580 1581 1582 1583 1584
1511 1511 1511 1511 1512 1513 1516 1518 1519 1520 1521 1522 1525 1527 1530 1532 1535 1538 1541 1543 1546 1548 1551 1553 1554 1557 1558 1560 1562 1563 1564 1566 1567 1568 1570 1571 1572 1573 1574 1575 1576 1577 1578 1580 1581 1582 1583 1584 1585
1512 1514 1514 1513 1513 1515 1517 1521 1520 1520 1521 1523 1526 1528 1531 1534 1536 1538 1540 1542 1545 1548 1551 1553 1555 1556 1558 1560 1561 1563 1564 1566 1567 1568 1570 1571 1573 1574 1575 1576 1577 1578 1579 1580 1581 1582 1583 1584 1585
1514 1521 1526 1517 1515 1515 1520 1528 1519 1520 1521 1524 1527 1529 1532 1534 1536 1538 1540 1542 1545 1548 1550 1552 1554 1555 1557 1559 1561 1562 1564 1565 1567 1568 1569 1571 1572 1574 1575 1576 1577 1578 1579 1580 1581 1582 1583 1584 1584
1526 1533 1530 1522 1515 1516 1520 1524 1519 1520 1522 1524 1527 1529 1531 1534 1535 1537 1539 1542 1545 1547 1549 1551 1553 1555 1556 1558 1560 1561 1563 1564 1566 1567 1569 1570 1572 1573 1574 1576 1577 1578 1578 1579 1581 1582 1582 1583 1584
1532 1531 1530 1527 1518 1518 1521 1521 1519 1520 1522 1524 1526 1528 1531 1531 1533 1535 1539 1541 1544 1546 1548 1550 1552 1554 1555 1557 1559 1560 1562 1563 1565 1566 1568 1569 1571 1572 1573 1575 1576 1577 1578 1579 1580 1581 1582 1583 1583
1522 1527 1530 1524 1516 1519 1521 1521 1519 1520 1522 1523 1525 1527 1528 1530 1533 1535 1538 1540 1543 1545 1547 1548 1550 1552 1554 1555 1556 1558 1560 1562 1563 1565 1566 1568 1569 1571 1572 1573 1575 1576 1577 1578 1579 1580 1581 1581 1582
1521 1526 1527 1522 1516 1519 1523 1523 1519 1519 1519 1520 1522 1524 1526 1529 1532 1534 1536 1538 1540 1543 1545 1547 1548 1550 1552 1554 1555 1557 1559 1560 1561 1563 1565 1566 1567 1569 1570 1572 1573 1574 1575 1576 1578 1578 1579 1580 1581
1521 1524 1523 1523 1521 1522 1524 1529 1523 1519 1519 1521 1521 1523 1525 1527 1529 1532 1534 1536 1538 1540 1542 1545 1546 1549 1551 1553 1554 1555 1557 1558 1559 1561 1562 1564 1565 1567 1568 1570 1571 1572 1573 1574 1575 1576 1577 1578 1579
1524 1515 1517 1520 1529 1537 1532 1546 1528 1521 1519 1518 1518 1520 1522 1524 1527 1530 1532 1534 1536 1539 1541 1543 1545 1547 1549 1551 1552 1553 1554 1555 1557 1558 1560 1561 1563 1564 1566 1567 1568 1569 1571 1572 1573 1574 1575 1576 1576
1515 1513 1517 1522 1530 1540 1537 1545 1537 1524 1521 1516 1514 1515 1518 1521 1524 1527 1529 1532 1535 1537 1540 1542 1544 1545 1547 1549 1550 1551 1552 1554 1555 1556 1557 1558 1560 1561 1562 1564 1565 1566 1567 1569 1570 1571 1572 1573 1574
1510 1518 1526 1535 1542 1552 1540 1545 1541 1527 1517 1511 1510 1511 1514 1518 1522 1525 1528 1530 1533 1535 1538 1540 1542 1543 1545 1546 1548 1549 1550 1551 1552 1553 1554 1555 1557 1558 1559 1560 1561 1562 1564 1565 1566 1568 1568 1569 1570
1514 1532 1554 1556 1564 1559 1542 1544 1538 1513 1508 1506 1506 1508 1511 1515 1519 1522 1525 1527 1530 1533 1535 1538 1540 1541 1543 1544 1545 1547 1548 1548 1549 1550 1551 1552 1554 1555 1556 1557 1557 1559 1560 1561 1563 1564 1564 1566 1566
1516 1527 1553 1563 1566 1559 1544 1544 1524 1507 1503 1502 1503 1506 1509 1513 1516 1520 1523 1525 1528 1530 1533 1535 1537 1539 1541 1542 1543 1544 1545 1546 1547 1548 1549 1550 1551 1552 1553 1553 1554 1555 1556 1557 1559 1559 1560 1561 1562
1518 1526 1529 1550 1555 1559 1550 1537 1517 1504 1502 1502 1503 1505 1508 1511 1514 1517 1520 1523 1526 1528 1531 1533 1535 1537 1539 1540 1541 1542 1543 1544 1545 1545 1546 1547 1548 1548 1549 1550 1550 1551 1552 1553 1555 1555 1556 1557 1558
1508 1520 1536 1549 1563 1564 1552 1542 1532 1511 1506 1504 1503 1504 1506 1509 1512 1515 1518 1521 1524 1527 1530 1532 1534 1536 1537 1539 1540 1540 1541 1542 1543 1543 1544 1545 1545 1546 1546 1547 1547 1548 1548 1549 1551 1551 1552 1553 1554
1514 1521 1532 1546 1548 1562 1561 1546 1512 1507 1502 1502 1501 1502 1504 1507 1510 1513 1516 1520 1523 1526 1528 1531 1532 1534 1535 1537 1538 1539 1539 1540 1541 1541 1542 1542 1543 1543 1543 1543 1544 1544 1545 1546 1547 1548 1548 1549 1550
1503 1512 1525 1538 1546 1552 1554 1541 1500 1499 1498 1498 1499 1501 1503 1506 1509 1512 1515 1518 1521 1524 1527 1529 1531 1532 1534 1535 1536 1537 1537 1538 1539 1539 1540 1540 1540 1540 1540 1540 1541 1541 1542 1542 1543 1544 1545 1545 1546